DELTA 1 DEB, 21270

Orbit data source: Space-Track

DELTA 1 DEB, 21270 is space debris in SSO originally from a launch on Thu, 12 Jun 1975 UTC launched from the Air Force Western Test Range (AFWTR). Debris objects in space refer to the collection of defunct objects orbiting the Earth. Examples of debris include non-operational satellites, rocket bodies, and fragments generated from explosions, collisions, or faulty payload assembly.

Loading next visibility...
Identifier
21270, 1975-052F
Orbit
SSO
Country
Flag of USUS
Related business
Manufacturer
Unknown
Mission
Spacecraft
Bus & Motor
Unknown
Mass
Unknown
Launch date (UTC)
1975-06-12 (51 years ago)
Launch vehicle
Unknown
Launch site
Air Force Western Test Range (AFWTR)
Object type
Payload
Rocket body
Debris
Shape & HBR
Unknown shape, 0.2 m
Radar Cross Section
Small (<0.1 m²)

Expand to show TLE details & history
Last TLE update: 11 hours ago

TLE from 11 hours ago
0 DELTA 1 DEB
1 21270U 75052F   25354.13362523  .00000860  00000-0  34706-2 0  9991
2 21270  99.4466  55.8693 0445697 239.0184 146.2006 12.61121629586605
Epoch: 2025-12-20T03:12Z
TLE epoch observation values (Epoch: 2025-12-20T03:12:25.219Z)
Latitude
27.55731°
Longitude
-86.15797°
Altitude
1,714.834 km
Speed
6.888 km/s
True Right ascension
03h 23m 38s
True Declination
27° 25' 59"
Sunlit
Object was in full shadow at epoch
Visualization orbit readout
Latitude
Unknown
Longitude
Unknown
Altitude
Unknown
Speed
Unknown
Apparent Right ascension
Unknown
Apparent Declination
Unknown
Sunlit
N/A
Visualization observer readout
Local Sidereal Time
12:41:05
Azimuth
Unknown
Elevation
Unknown
Doppler factor
Unknown
Orbital elements
Apogee altitude
1,763.09 km
Perigee altitude
1,068.35 km
Semi-major axis
7,793.857 km
Eccentricity
0.04457
Inclination
99.4466°
RAAN
55.8693°
Arg. of periapsis
239.0184°
True anomaly
148.9148°
Mean anomaly
146.2006°
Eccentric anomaly
147.57004°
Mean motion
3.15438 °/min
Orbital period
114.13 mins
BSTAR
0.0034706
Loading maneuver chart data...
Computing Atmospheric mass density...
Loading historical data...
Loading historical data...
Loading historical data...
Loading historical data...
Loading historical data...
Loading historical data...
Loading historical data...

Documentation

Showing up to 5 results
|